Regional Weather Roundup
Issued by NWS

Home | Current Version | Previous Version | Text Only | Print | Product List | Glossary Off
Versions: 1 2 3 4 5 6 7 8 9 10 11 12 13 14 15 16 17 18 19 20 21 22 23 24 25 26 27 28 29 30 31 32 33 34 35 36 37 38 39 40 41 42 43 44 45 46 47 48 49 50

721
ASUS45 KCYS 300210
RWRWY

WYOMING REGIONAL WEATHER ROUNDUP
NATIONAL WEATHER SERVICE CHEYENNE WY
800 PM MDT WED MAR 29 2017

NOTE:  "FAIR" INDICATES FEW OR NO CLOUDS BELOW 12,000 FEET
WITH NO SIGNIFICANT WEATHER AND/OR OBSTRUCTIONS TO VISIBILITY.

WYZ001-300300-
YELLOWSTONE NATIONAL PARK

CITY           SKY/WX    TMP DP  RH WIND       PRES   REMARKS
LK YELLOWSTONE   N/A     32  30  92 CALM      30.07F
W YELLOWSTONE  NOT AVBL

$$
WYZ002>013-054>058-071-098>099-300300-
NORTHERN WYOMING

CITY           SKY/WX    TMP DP  RH WIND       PRES   REMARKS
JACKSON        MOCLDY    41  32  70 SW5       30.04F
CODY           FAIR      51  28  41 W18G29    29.90F
GREYBULL       FAIR      55  27  34 CALM      29.86F
WORLAND        FAIR      48  38  68 E5        29.86F
SHERIDAN       FAIR      48  33  56 SW3       29.85S
BUFFALO        FAIR      51  27  39 N5        29.88F
GILLETTE       FAIR      41  28  60 CALM      29.88F HAZE
HULETT         FAIR      46  32  57 E6        29.91R
NEWCASTLE      FAIR      46  32  57 SE15      29.91S

$$
WYZ014>020-022>026-101>103-300300-
CENTRAL WYOMING

CITY           SKY/WX    TMP DP  RH WIND       PRES   REMARKS
BIG PINEY      FAIR      41  30  65 N10       30.06F
PINEDALE       FAIR      37  27  65 NW6       30.07S WCI  33
DUBOIS         CLOUDY    41  28  60 NW15G21   30.00S
LANDER         FAIR      50  32  50 SW6       29.89F
RIVERTON       FAIR      53  31  42 W12       29.91S
CASPER         FAIR      44  29  55 SW6       29.90F
DOUGLAS        FAIR      48  29  47 CALM      29.92F

$$
WYZ021-027>030-104>119-300300-
SOUTHERN WYOMING

CITY           SKY/WX    TMP DP  RH WIND       PRES   REMARKS
EVANSTON       MOCLDY    42  27  55 W15       30.11F
KEMMERER         N/A     39  30  70 W3        30.10S
FORT BRIDGER   FAIR      44  29  55 W12       30.11F
ROCK SPRINGS   FAIR      46  29  51 W16       30.03F
DIXON            N/A     44  26  49 W3        30.06F
RAWLINS        FAIR      46  27  47 W12       30.00F
SARATOGA       FAIR      39  27  60 W7        30.03F WCI  34
LARAMIE        FAIR      40  25  55 N6        29.98F
CHEYENNE       FAIR      46  28  49 N6        29.96F
TORRINGTON     FAIR      48  35  60 E10       29.92R
PINE BLUFFS    FAIR      43  34  70 E6        29.96S

$$




USA.gov is the U.S. government's official web portal to all federal, state and local government web resources and services.